Regional Weather Roundup
Issued by NWS Goodland, KS

Home | Current Version | Previous Version | Text Only | Print | Product List | Glossary On
Versions: 1 2 3 4 5 6 7 8 9 10 11 12 13 14 15 16 17 18 19 20 21 22 23 24 25 26 27 28 29 30 31 32 33 34 35 36 37 38 39 40 41 42 43 44 45 46 47 48 49 50
000
ASUS43 KGLD 200808
RWRGLD

GOODLAND FORECAST AREA HOURLY WEATHER ROUNDUP
NATIONAL WEATHER SERVICE GOODLAND KS
200 AM MDT MON OCT 20 2014

...OFFICIAL OBSERVATIONS...

CITY           SKY/WX    TMP DP  RH WIND       PRES   REMARKS
GOODLAND KS    CLEAR     42  39  89 W5        30.13S
HILL CITY KS   CLEAR     43  41  93 CALM      30.06S
IMPERIAL NEB   CLEAR     40  34  79 N7        30.12R
MCCOOK NEB     CLEAR     41  38  89 SW5       30.09R
AKRON CO       CLEAR     50  39  66 S6        30.15S
BURLINGTON CO  CLEAR     41  37  86 W6        30.13F
LIMON CO       CLEAR     38  35  89 CALM      30.19S
$$

...UNOFFICIAL OBSERVATIONS...

CITY           SKY/WX    TMP DP  RH WIND       PRES   REMARKS
COLBY KS       CLEAR     43  43 100 W9        30.10S
GOVE KS          N/A     44  32  63 MISG        N/A
NORTON KS      CLEAR     39  37  93 NW3       30.05S
SHARON SPRINGS   N/A     45  41  86 CALM        N/A
TRENTON NEB      N/A     45  32  60 NW7         N/A
KIT CARSON CO    N/A     47  39  75 CALM        N/A
YUMA CO          N/A     39  34  81 CALM        N/A
$$


USA.gov is the U.S. government's official web portal to all federal, state and local government web resources and services.